This is the latest recevied weather packets stored in our database for station/object KN4DS-3. If no packets are shown the sender has not sent any weather packets the latest 10 day(s).
| Time | Temp. | Humidity | Pressure | Rain* | Wind** | Luminosity | Snow |
|---|---|---|---|---|---|---|---|
| 1777922405 | 27.78° C | 25% | 1016.5 hPa | 0 mm | - | - | - |
| 1777922104 | 27.22° C | 27% | 1016.5 hPa | 0 mm | - | - | - |
| 1777921804 | 26.67° C | 28% | 1016.5 hPa | 0 mm | - | - | - |
| 1777921504 | 26.67° C | 27% | 1016.5 hPa | 0 mm | - | - | - |
| 1777921204 | 27.22° C | 27% | 1016.7 hPa | 0 mm | - | - | - |
| 1777920904 | 26.67° C | 29% | 1016.8 hPa | 0 mm | - | - | - |
| 1777920604 | 26.67° C | 28% | 1016.8 hPa | 0 mm | - | - | - |
| 1777920304 | 27.78° C | 27% | 1016.9 hPa | 0 mm | - | - | - |
| 1777920004 | 27.22° C | 28% | 1016.9 hPa | 0 mm | - | - | - |
| 1777919704 | 26.67° C | 29% | 1017 hPa | 0 mm | - | - | - |
| 1777919404 | 26.67° C | 30% | 1017 hPa | 0 mm | - | - | - |
| 1777919104 | 26.11° C | 30% | 1017 hPa | 0 mm | - | - | - |
| 1777918805 | 25.56° C | 30% | 1017 hPa | 0 mm | - | - | - |
| 1777918503 | 25.56° C | 34% | 1017.1 hPa | 0 mm | - | - | - |
| 1777918204 | 25.56° C | 30% | 1017.2 hPa | 0 mm | - | - | - |
| 1777917904 | 26.11° C | 30% | 1017.3 hPa | 0 mm | - | - | - |
| 1777917605 | 25.56° C | 30% | 1017.2 hPa | 0 mm | - | - | - |
| 1777917304 | 25° C | 31% | 1017.3 hPa | 0 mm | - | - | - |
| 1777917004 | 25.56° C | 31% | 1017.5 hPa | 0 mm | - | - | - |
| 1777916704 | 25.56° C | 31% | 1017.4 hPa | 0 mm | - | - | - |
| 1777916405 | 26.11° C | 30% | 1017.5 hPa | 0 mm | - | - | - |
| 1777916104 | 25.56° C | 29% | 1017.6 hPa | 0 mm | - | - | - |
| 1777915804 | 25.56° C | 30% | 1017.6 hPa | 0 mm | - | - | - |
| 1777915505 | 26.11° C | 29% | 1017.7 hPa | 0 mm | - | - | - |
| 1777915204 | 26.11° C | 29% | 1017.7 hPa | 0 mm | - | - | - |
* Rain latest hour (hover to see other rain measurements)
** Current wind speed in m/s (hover to see current wind gust speed)